• MPC Preparation (Info)

  • MPEC 2024-E63 : 2024 EL1

    The following Minor Planet Electronic Circular may be linked-to from your own Web pages, but must not otherwise be redistributed electronically.

    A form allowing access to any MPEC is at the bottom of this page.


    Read MPEC 2024-E62 Read MPEC 2024-E64


    M.P.E.C. 2024-E63                                 Issued 2024 March 5, 22:36 UT
    
         The Minor Planet Electronic Circulars contain information on unusual
             minor planets, routine data on comets and natural satellites,
             and occasional editorial announcements.  They are published
        on behalf of Division F of the International Astronomical Union by the
              Minor Planet Center, Smithsonian Astrophysical Observatory,
                              Cambridge, MA 02138, U.S.A.
    			  
                 Prepared using the Tamkin Foundation Computer Network
    
                                  MPC@CFA.HARVARD.EDU
                URL https://www.minorplanetcenter.net/    ISSN 1523-6714
    
                                    2024 EL1                                 
    
    
    Observations:
         K24E01L* C2024 03 04.91587 10 04 44.25 +13 31 04.9          19.8 RoEE063K88
         K24E01L  C2024 03 04.91749 10 04 45.08 +13 30 55.8          20.0 RoEE063K88
         K24E01L  C2024 03 04.92290 10 04 47.61 +13 30 22.3          19.5 RoEE063K88
         K24E01L KC2024 03 04.94825 10 05 00.06 +13 27 52.9          19.8 RoEE063K88
         K24E01L KC2024 03 04.95154 10 05 01.69 +13 27 33.1          20.1 RoEE063K88
         K24E01L KC2024 03 04.95482 10 05 03.26 +13 27 13.4          19.8 RoEE063K88
         K24E01L KC2024 03 04.98847 10 05 19.95 +13 23 50.1          20.0 RoEE063K88
         K24E01L KC2024 03 04.99241 10 05 21.94 +13 23 26.5          19.9 RoEE063K88
         K24E01L KC2024 03 04.99634 10 05 23.89 +13 23 02.6          20.0 RoEE063K88
         K24E01L hC2024 03 05.07877510 06 06.49 +13 14 42.6          19.6 GVEE063L01
         K24E01L hC2024 03 05.08025810 06 07.24 +13 14 32.9          20.0 GVEE063L01
         K24E01L hC2024 03 05.08174210 06 08.05 +13 14 23.7          19.8 GVEE063L01
         K24E01L hC2024 03 05.08326110 06 08.84 +13 14 13.9          19.7 GVEE063L01
         K24E01L hC2024 03 05.08452910 06 09.51 +13 14 05.6          19.7 GVEE063L01
         K24E01L KC2024 03 05.12886110 06 50.49 +13 10 07.3          20.4 GXEE063858
         K24E01L KC2024 03 05.13581710 06 54.09 +13 09 25.6          20.2 GXEE063858
         K24E01L KC2024 03 05.14270310 06 57.64 +13 08 44.3          20.0 GXEE063858
         K24E01L mC2024 03 05.19220410 07 23.815+13 03 50.72         20.83GVEE063I52
         K24E01L mC2024 03 05.19280210 07 24.161+13 03 46.94         20.47GVEE063I52
         K24E01L mC2024 03 05.19340610 07 24.467+13 03 43.45         19.80GVEE063I52
         K24E01L mC2024 03 05.19400810 07 24.776+13 03 39.74         19.98GVEE063I52
         K24E01L 1C2024 03 05.22410310 07 40.012+13 00 34.78         20.57GVEE063G96
         K24E01L 1C2024 03 05.22922510 07 42.596+13 00 02.70         19.54GVEE063G96
         K24E01L 1C2024 03 05.23435410 07 45.178+12 59 30.84         19.81GVEE063G96
         K24E01L 1C2024 03 05.23946510 07 47.744+12 58 59.05         19.69GVEE063G96
         K24E01L KB2024 03 05.75398 10 13 02.17 +12 01 15.5          19.2 GXEE063M45
         K24E01L KB2024 03 05.76364 10 13 07.92 +12 00 09.5          19.6 GXEE063M45
         K24E01L KC2024 03 05.81703010 13 41.676+11 53 34.58         20.0 GVEE063J95
         K24E01L KC2024 03 05.82431310 13 46.121+11 52 44.33         19.9 GVEE063J95
         K24E01L KB2024 03 05.92355 10 14 46.159+11 41 37.90         20.0 GXEE063J57
         K24E01L KB2024 03 05.92862 10 14 49.116+11 41 01.79         20.3 GXEE063J57
    
    Observer details:
    858 Tebbutt Observatory, Edgewood.  Observer F. B. Zoltowski.  0.51-m f/8.1
        Schmidt-Cassegrain + CCD.
    G96 Mt. Lemmon Survey.  Observer G. J. Leonard.  Measurers T. Beuden, V. F.
        Carvajal, D. Fay, J. B. Fazekas, D. C. Fuls, A. R. Gibbs, A. D. Grauer, H.
        Groeller, J. K. Hogan, R. A. Kowalski, S. M. Larson, G. J. Leonard, D.
        Rankin, R. L. Seaman, F. C. Shelly, K. W. Wierzchos.  1.5-m reflector +
        10K CCD.
    I52 Steward Observatory, Mt. Lemmon Station.  Observer J. K. Hogan.  Measurers
        T. Beuden, V. F. Carvajal, D. Fay, J. B. Fazekas, D. C. Fuls, A. R. Gibbs,
        A. D. Grauer, H. Groeller, J. K. Hogan, R. A. Kowalski, S. M. Larson, G.
        J. Leonard, D. Rankin, R. L. Seaman, F. C. Shelly, K. W. Wierzchos.  1.0-m
        prime focus + CCD.
    J57 Centro Astronomico Alto Turia, Valencia.  Observer A. Fornas.  Measurers
        A. Fornas, G. Fornas, E. Arce, V. Mas.  0.43-m f/6.8 Reflector CDK + CMO.
    J95 Great Shefford.  Observer P. Birtwhistle.  0.41-m f/6.3 Schmidt-Cassegrain
        + CCD.
    K88 GINOP-KHK, Piszkesteto.  Observer K. Sarneczky.  0.60-m Schmidt + CCD.
    L01 Visnjan Observatory, Tican.  Observer K. Korlevic.  1.0-m f/2.9 reflector
        + CCD.
    M45 Starhopper Observatory, Sfantu Gheorghe.  Observer F. Ursache.  0.41-m
        f/7.5 reflector + CMO.
    
    Orbital elements:
    2024 EL1                                                 Earth MOID = 0.0104 AU
    Epoch 2024 Mar. 31.0 TT = JDT 2460400.5                 Veres                   
    M   0.99736              (2000.0)            P               Q                  
    n   0.32811682     Peri.  205.50080     -0.98067699     +0.19544383             
    a   2.0818546      Node   345.76188     -0.17295219     -0.88673376             
    e   0.5217653      Incl.    2.00900     -0.09143399     -0.41893311             
    P   3.00           H   26.13          G   0.15           U   8                  
    Residuals in seconds of arc
    240304 K88  0.2+  0.2-    240305 L01  0.2+  0.0     240305 G96  0.2+  0.0
    240304 K88  0.8+  0.3+    240305 L01  0.1+  0.3-    240305 G96  0.1+  0.0
    240304 K88  0.8-  1.2-    240305 L01  0.2+  0.6-    240305 G96  0.1-  0.1+
    240304 K88  0.1-  0.3+    240305 858  0.2+  0.0     240305 M45  0.3-  0.6+
    240304 K88  0.1+  0.2+    240305 858  0.2+  0.0     240305 M45  0.4+  0.7+
    240304 K88  0.6-  0.2+    240305 858  0.3+  0.0     240305 J95  0.3-  0.2-
    240304 K88  0.4-  0.0     240305 I52  0.6-  0.0     240305 J95  0.2+  0.1+
    240304 K88  0.1-  0.3+    240305 I52  0.0   0.1-    240305 J57  0.5+  0.4-
    240304 K88  0.4-  0.4+    240305 I52  0.0   0.1+    240305 J57  0.5+  0.2-
    240305 L01  0.1+  0.4+    240305 I52  0.1+  0.0
    240305 L01  0.2-  0.1-    240305 G96  0.2+  0.3+
    
    Ephemeris:
    2024 EL1                 a,e,i = 2.08, 0.52, 2                   q = 0.9956
    Date    TT    R. A. (2000) Decl.     Delta      r    Elong.  Phase     V
    2024 02 04    09 02 03.9 +23 34 37   0.1986  1.1830   172.9     5.9    23.5
    ...
    2024 02 19    09 10 13.9 +22 34 18   0.1149  1.0986   162.7    15.5    22.5
    ...
    2024 02 27    09 26 31.6 +20 03 41   0.07609 1.0617   159.6    19.0    21.6
    ...
    2024 03 04    09 57 03.5 +14 55 19   0.04930 1.0387   162.5    16.7    20.6
    2024 03 05    10 05 30.0 +13 24 39   0.04513 1.0353   164.0    15.3    20.3
    2024 03 06    10 15 32.0 +11 34 10   0.04109 1.0320   166.0    13.4    20.0
    ...
    2024 03 12    12 21 15.8 -12 48 20   0.02290 1.0151   159.3    20.3    19.0
    ...
    2024 03 20    17 25 09.2 -38 23 51   0.03647 1.0005    96.4    81.6    21.8
    ...
    2024 04 04    19 23 39.3 -33 49 57   0.09726 0.9995    86.8    87.6    24.1
    
    M. P. C. Staff               (C) Copyright 2024 MPC           M.P.E.C. 2024-E63
    


    Read MPEC 2024-E62 Read MPEC 2024-E64


    MPEC number:

    Enter an MPEC number in one of the following forms:

    • 1997-B01 (the full form)
    • J97B01 (the packed version of the full form)
    • B01 (the abbreviated form)